Previsão horária em Almada

Hoje, 16 Janeiro, Sábado

Tempo Temperatura Precipitação Vento Pressão Humidade
00:00 +7°C° 0 mm 3 m/s 769 mmHg 86%
01:00 +7°C° 0 mm 3 m/s 769 mmHg 86%
02:00 +5°C° 0 mm 3 m/s 769 mmHg 87%
03:00 +5°C° 0 mm 3 m/s 769 mmHg 87%
04:00 +4°C° 0 mm 3 m/s 769 mmHg 87%
05:00 +5°C° 0 mm 2 m/s 769 mmHg 88%
06:00 +5°C° 0 mm 2 m/s 769 mmHg 86%
07:00 +6°C° 0 mm 2 m/s 769 mmHg 84%
08:00 +6°C° 0 mm 2 m/s 769 mmHg 81%
09:00 +8°C° 0 mm 2 m/s 769 mmHg 73%
10:00 +10°C° 0 mm 2 m/s 769 mmHg 65%
11:00 +12°C° 0 mm 2 m/s 769 mmHg 57%
12:00 +13°C° 0 mm 2 m/s 769 mmHg 53%
13:00 +14°C° 0 mm 2 m/s 769 mmHg 50%
14:00 +15°C° 0 mm 2 m/s 768 mmHg 47%
15:00 +13°C° 0 mm 2 m/s 768 mmHg 55%
16:00 +10°C° 0 mm 2 m/s 768 mmHg 62%
17:00 +9°C° 0 mm 2 m/s 769 mmHg 70%
18:00 +8°C° 0 mm 2 m/s 769 mmHg 71%
19:00 +8°C° 0 mm 2 m/s 769 mmHg 72%
20:00 +7°C° 0 mm 2 m/s 770 mmHg 74%
21:00 +7°C° 0 mm 2 m/s 770 mmHg 74%
22:00 +6°C° 0 mm 2 m/s 770 mmHg 74%
23:00 +6°C° 0 mm 2 m/s 770 mmHg 75%

Amanhã, 17 Janeiro, Domingo

Tempo Temperatura Precipitação Vento Pressão Humidade
00:00 +6°C° 0 mm 2 m/s 769 mmHg 75%
01:00 +6°C° 0 mm 2 m/s 769 mmHg 75%
02:00 +5°C° 0 mm 2 m/s 769 mmHg 75%
03:00 +5°C° 0 mm 2 m/s 769 mmHg 75%
04:00 +5°C° 0 mm 2 m/s 769 mmHg 76%
05:00 +5°C° 0 mm 2 m/s 769 mmHg 77%
06:00 +5°C° 0 mm 2 m/s 769 mmHg 75%
07:00 +5°C° 0 mm 2 m/s 769 mmHg 74%
08:00 +5°C° 0 mm 3 m/s 770 mmHg 72%
09:00 +8°C° 0 mm 2 m/s 770 mmHg 65%
10:00 +10°C° 0 mm 2 m/s 770 mmHg 57%
11:00 +13°C° 0 mm 2 m/s 770 mmHg 50%
12:00 +14°C° 0 mm 1 m/s 769 mmHg 49%
13:00 +15°C° 0 mm 1 m/s 769 mmHg 48%
14:00 +15°C° 0 mm 1 m/s 768 mmHg 46%
15:00 +14°C° 0 mm 1 m/s 768 mmHg 54%
16:00 +12°C° 0 mm 1 m/s 768 mmHg 61%
17:00 +10°C° 0 mm 1 m/s 768 mmHg 68%
18:00 +10°C° 0 mm 1 m/s 768 mmHg 69%
19:00 +9°C° 0 mm 1 m/s 768 mmHg 71%
20:00 +9°C° 0 mm 1 m/s 768 mmHg 72%
21:00 +7°C° 0 mm 2 m/s 768 mmHg 73%
22:00 +7°C° 0 mm 2 m/s 768 mmHg 74%
23:00 +7°C° 0 mm 2 m/s 768 mmHg 75%

Depois de amanhã, 18 Janeiro, Segunda-feira

Tempo Temperatura Precipitação Vento Pressão Humidade
00:00 +6°C° 0 mm 2 m/s 768 mmHg 75%
01:00 +6°C° 0 mm 2 m/s 768 mmHg 76%
02:00 +6°C° 0 mm 2 m/s 767 mmHg 76%
03:00 +5°C° 0 mm 2 m/s 767 mmHg 77%
04:00 +5°C° 0 mm 2 m/s 767 mmHg 77%
05:00 +4°C° 0 mm 3 m/s 767 mmHg 78%
06:00 +4°C° 0 mm 3 m/s 767 mmHg 77%
07:00 +4°C° 0 mm 3 m/s 767 mmHg 76%
08:00 +4°C° 0 mm 3 m/s 768 mmHg 75%
09:00 +7°C° 0 mm 2 m/s 768 mmHg 67%
10:00 +9°C° 0 mm 2 m/s 768 mmHg 59%
11:00 +12°C° 0 mm 2 m/s 768 mmHg 51%
12:00 +13°C° 0 mm 1 m/s 767 mmHg 49%
13:00 +14°C° 0 mm 1 m/s 767 mmHg 47%
14:00 +15°C° 0 mm 1 m/s 766 mmHg 45%
15:00 +13°C° 0 mm 1 m/s 766 mmHg 51%
16:00 +12°C° 0 mm 1 m/s 766 mmHg 57%
17:00 +10°C° 0 mm 1 m/s 766 mmHg 62%
18:00 +10°C° 0 mm 1 m/s 766 mmHg 63%
19:00 +10°C° 0 mm 1 m/s 766 mmHg 64%
20:00 +8°C° 0 mm 2 m/s 766 mmHg 64%
21:00 +8°C° 0 mm 2 m/s 766 mmHg 68%
22:00 +8°C° 0 mm 2 m/s 766 mmHg 72%
23:00 +8°C° 0 mm 2 m/s 766 mmHg 76%

19 Janeiro, Terça-feira

Tempo Temperatura Precipitação Vento Pressão Humidade
00:00 +8°C° 0 mm 2 m/s 766 mmHg 80%
01:00 +7°C° 0 mm 2 m/s 765 mmHg 83%
02:00 +7°C° 0 mm 2 m/s 765 mmHg 87%
03:00 +7°C° 0 mm 3 m/s 765 mmHg 88%
04:00 +8°C° 0 mm 3 m/s 765 mmHg 90%
05:00 +8°C° 0 mm 3 m/s 764 mmHg 91%
06:00 +8°C° 0 mm 3 m/s 764 mmHg 91%
07:00 +7°C° 0 mm 4 m/s 764 mmHg 91%
08:00 +8°C° 0 mm 4 m/s 764 mmHg 91%
09:00 +9°C° 0 mm 5 m/s 764 mmHg 85%
10:00 +12°C° 0 mm 5 m/s 764 mmHg 79%
11:00 +14°C° 0 mm 6 m/s 764 mmHg 73%
12:00 +14°C° 0 mm 6 m/s 763 mmHg 74%
13:00 +14°C° 0 mm 7 m/s 762 mmHg 74%
14:00 +14°C° 0 mm 7 m/s 761 mmHg 75%
15:00 +12°C° 0 mm 7 m/s 761 mmHg 76%
16:00 +12°C° 0 mm 7 m/s 761 mmHg 76%
17:00 +12°C° 0 mm 7 m/s 760 mmHg 77%
18:00 +12°C° 0 mm 8 m/s 760 mmHg 78%
19:00 +12°C° 0 mm 8 m/s 759 mmHg 78%
20:00 +12°C° 0 mm 9 m/s 759 mmHg 78%
21:00 +12°C° 0.4 mm 9 m/s 758 mmHg 81%
22:00 +12°C° 0.4 mm 10 m/s 757 mmHg 84%
23:00 +13°C° 0.4 mm 11 m/s 756 mmHg 86%

20 Janeiro, Quarta-feira

Tempo Temperatura Precipitação Vento Pressão Humidade
00:00 +13°C° 2.2 mm 11 m/s 755 mmHg 88%
01:00 +13°C° 2.2 mm 11 m/s 755 mmHg 90%
02:00 +13°C° 2.2 mm 11 m/s 754 mmHg 91%
03:00 +13°C° 4.2 mm 11 m/s 753 mmHg 91%
04:00 +13°C° 4.2 mm 11 m/s 753 mmHg 90%
05:00 +13°C° 4.2 mm 10 m/s 752 mmHg 90%
06:00 +13°C° 0.4 mm 9 m/s 752 mmHg 88%
07:00 +13°C° 0.4 mm 8 m/s 752 mmHg 87%
08:00 +12°C° 0.4 mm 7 m/s 753 mmHg 86%
09:00 +13°C° 0.3 mm 8 m/s 753 mmHg 84%
10:00 +15°C° 0.3 mm 8 m/s 753 mmHg 82%
11:00 +15°C° 0.3 mm 9 m/s 754 mmHg 80%
12:00 +15°C° 0.6 mm 9 m/s 754 mmHg 80%
13:00 +15°C° 0.6 mm 9 m/s 754 mmHg 80%
14:00 +15°C° 0.6 mm 9 m/s 754 mmHg 80%
15:00 +13°C° 0.2 mm 8 m/s 755 mmHg 82%
16:00 +13°C° 0.2 mm 8 m/s 755 mmHg 84%
17:00 +12°C° 0.2 mm 7 m/s 756 mmHg 87%
18:00 +12°C° 0.1 mm 7 m/s 756 mmHg 87%
19:00 +13°C° 0.1 mm 6 m/s 757 mmHg 88%
20:00 +13°C° 0.1 mm 6 m/s 758 mmHg 89%
21:00 +13°C° 0.1 mm 6 m/s 758 mmHg 90%
22:00 +12°C° 0.1 mm 5 m/s 758 mmHg 91%
23:00 +12°C° 0.1 mm 5 m/s 759 mmHg 93%

21 Janeiro, Quinta-feira

Tempo Temperatura Precipitação Vento Pressão Humidade
00:00 +12°C° 0 mm 5 m/s 759 mmHg 93%
01:00 +12°C° 0 mm 5 m/s 759 mmHg 93%
02:00 +12°C° 0 mm 5 m/s 759 mmHg 93%
03:00 +12°C° 0.1 mm 5 m/s 759 mmHg 93%
04:00 +12°C° 0.1 mm 5 m/s 759 mmHg 94%
05:00 +11°C° 0.1 mm 6 m/s 759 mmHg 94%
06:00 +13°C° 0.1 mm 6 m/s 759 mmHg 91%
07:00 +12°C° 0.1 mm 7 m/s 759 mmHg 89%
08:00 +12°C° 0.1 mm 7 m/s 760 mmHg 87%
09:00 +13°C° 0 mm 8 m/s 759 mmHg 82%
10:00 +13°C° 0 mm 9 m/s 759 mmHg 77%
11:00 +15°C° 0 mm 9 m/s 759 mmHg 71%
12:00 +15°C° 0.1 mm 9 m/s 759 mmHg 76%
13:00 +14°C° 0.1 mm 10 m/s 758 mmHg 81%
14:00 +14°C° 0.1 mm 10 m/s 758 mmHg 86%
15:00 +15°C° 0.3 mm 9 m/s 758 mmHg 87%
16:00 +15°C° 0.3 mm 8 m/s 758 mmHg 89%
17:00 +15°C° 0.3 mm 7 m/s 758 mmHg 91%
18:00 +14°C° 0.1 mm 7 m/s 759 mmHg 91%
19:00 +14°C° 0.1 mm 6 m/s 759 mmHg 92%
20:00 +13°C° 0.1 mm 5 m/s 760 mmHg 92%
21:00 +13°C° 0 mm 5 m/s 760 mmHg 91%
22:00 +12°C° 0 mm 5 m/s 761 mmHg 90%
23:00 +12°C° 0 mm 5 m/s 761 mmHg 89%
Mostrar mais

Necessitamos do seu Consentimento

A Meteoprog e os seus Fornecedores de Serviços podem armazenar e aceder a dados pessoais como cookies, identificadores do dispositivo ou outras tecnologias semelhantes existentes no seu dispositivo e processar estes dados para personalizar conteúdos e anúncios, assim como funcionalidades nas redes sociais e análise de tráfego.

  • Armazenar e/ou aceder a informações no seu dispositivo

    Os cookies, identificadores do dispositivo ou outras informações podem ser armazenados ou acedidos no seu dispositivo, para os fins acima indicados.

  • Anúncios e conteúdos personalizados, medição de anúncios e conteúdos, dados sobre o público-alvo e desenvolvimento de produtos

    Os anúncios e os conteúdos podem ser personalizados com base num perfil. Podem ser adicionados dados adicionais para uma maior personalização dos anúncios e dos conteúdos. A eficácia dos anúncios e dos conteúdos pode ser medida. Podem ser obtidas informações sobre o público que visualizou os anúncios e os conteúdos. Estes dados podem ser usados para desenvolver ou melhorar sistemas, softwares ou a experiência do utilizador.

Ao clicar em "Eu concordo”, permitirá o uso de cookies, identificadores do dispositivo e web beacons mencionados ou outras tecnologias semelhantes. As configurações do navegador do seu dispositivo podem ser alteradas.

Para certos fins, podem ser invocados interesses legítimos ao invés de consentimento. Pode ler mais informação sobre este assunto na nossa Política de Privacidade e Cookies.